Terug naar catalogus

NEIJIANG

ActiefCommunicatieSSO
NORAD 63984·PAYLOAD·🇨🇳 China
Deze satellietnaam is nog niet bevestigd door officiële bronnen.

Gelanceerd May 14, 2025 vanaf Jiuquan Satellite Launch Center

Loading…

Volgende Passages (komende 24 uur)

TLE

VersSource: Space-Track

Epoch: Sep 14, 2026, 22:27 UTC

1 63984U 25100C   26257.93548716  .00007868  00000-0  34983-3 0  9992
2 63984  97.3589 328.6808 0030393  50.9265 309.4668 15.21349927 74261

Volg NEIJIANG in realtime met AllMySat

Download on the App Store